Regional Weather Roundup
Issued by NWS

Home | Current Version | Previous Version | Graphics & Text | Print | Product List | Glossary On
Versions: 1 2 3 4 5 6 7 8 9 10 11 12 13 14 15 16 17 18 19 20 21 22 23 24 25 26 27 28 29 30 31 32 33 34 35 36 37 38 39 40 41 42 43 44 45 46 47 48 49 50
000
ASUS44 KMEG 231600
RWRTN
TENNESSEE HOURLY STATE WEATHER ROUNDUP
NATIONAL WEATHER SERVICE MEMPHIS TN
1100 AM CDT THU MAR 23 2017

TNZ002-004-019-021-049-052-054-088>092-231700-
WEST TENNESSEE

CITY           SKY/WX    TMP DP  RH WIND       PRES   REMARKS
MEMPHIS INTL   MOSUNNY   63  28  26 S9        30.27F
NWS MEMPHIS      N/A     64 N/A N/A MISG        N/A
JACKSON        CLOUDY    58  30  34 SE6       30.29F
DYERSBURG      CLOUDY    55  32  41 E8        30.30F
PARIS          CLOUDY    43  28  56 E8        30.32F
$$

TNZ008-025-027-028-033-062-065-066-231700-
NORTH MIDDLE TENNESSEE

CITY           SKY/WX    TMP DP  RH WIND       PRES   REMARKS
NASHVILLE      CLOUDY    53  29  39 CALM      30.36R
CLARKSVILLE    CLOUDY    43  28  55 NE6       30.36S
SMYRNA         CLOUDY    55  33  43 CALM      30.37R
CROSSVILLE     SUNNY     55  26  32 S12G20    30.39R
$$

TNZ061-075-076-078-094-096-097-231700-
SOUTH MIDDLE TENNESSEE

CITY           SKY/WX    TMP DP  RH WIND       PRES   REMARKS
TULLAHOMA      SUNNY     61  28  29 S10       30.36S
WINCHESTER     SUNNY     61  34  36 S17       30.37R
MCMINNVILLE    SUNNY     64  34  32 S8        30.35S
COLUMBIA       SUNNY     61  39  44 S7        30.32S
SHELBYVILLE    SUNNY     64  39  39 S14       30.35R
$$

TNZ017-018-042-046-047-231700-
NORTHEAST TENNESSEE

CITY           SKY/WX    TMP DP  RH WIND       PRES   REMARKS
TRI CITIES     MOSUNNY   54  21  27 VRB7      30.43F
$$

TNZ012-013-036-069-073-074-231700-
CENTRAL EAST TENNESSEE

CITY           SKY/WX    TMP DP  RH WIND       PRES   REMARKS
KNOXVILLE      MOSUNNY   55  23  28 SW6       30.41S
OAK RIDGE      SUNNY     56  21  25 CALM      30.43F
GATLINBURG     SUNNY     54  30  40 NE5       30.41S
$$

TNZ083-085-099-231700-
SOUTHEAST TENNESSEE

CITY           SKY/WX    TMP DP  RH WIND       PRES   REMARKS
CHATTANOOGA    PTSUNNY   60  35  39 S8        30.42S
$$

SKY/WX REPORTED AS FAIR MEANS FEW OR NO CLOUDS BELOW
12 THOUSAND FEET.





USA.gov is the U.S. government's official web portal to all federal, state and local government web resources and services.